Regional Weather Roundup
Issued by NWS

Home | Current Version | Previous Version | Text Only | Print | Product List | Glossary Off
Versions: 1 2 3 4 5 6 7 8 9 10 11 12 13 14 15 16 17 18 19 20 21 22 23 24 25 26 27 28 29 30 31 32 33 34 35 36 37 38 39 40 41 42 43 44 45 46 47 48 49 50

000
ASUS45 KPSR 250500
RWRAZ

ARIZONA REGIONAL HOURLY WEATHER ROUNDUP
NATIONAL WEATHER SERVICE PHOENIX AZ
1000 PM MST FRI APR 24 2015

NOTE: FAIR INDICATES FEW OR NO CLOUDS BELOW 12,000 FEET WITH NO
SIGNIFICANT WEATHER AND/OR OBSTRUCTIONS TO VISIBILITY.

AZZ001>003-036-250600-
NORTHWEST ARIZONA

CITY           SKY/WX    TMP DP  RH WIND       PRES   REMARKS
KINGMAN        MOCLDY    60  37  42 S14       29.88R
$$

AZZ004>008-015-016-018-250600-
NORTH CENTRAL ARIZONA

CITY           SKY/WX    TMP DP  RH WIND       PRES   REMARKS
GRAND CANYON   CLOUDY    45  34  65 SW13      29.98R
WILLIAMS       CLOUDY    46  34  61 SW14G23   30.07R
PRESCOTT       MOCLDY    52  37  56 S9        29.98R
FLAGSTAFF      NOT AVBL
PAYSON         CLOUDY    48  43  81 CALM      30.02S
PAGE           PTCLDY    62  33  33 SW8G17    29.82R
$$

AZZ009>014-017-250600-
NORTHEAST ARIZONA

CITY           SKY/WX    TMP DP  RH WIND       PRES   REMARKS
WINSLOW        NOT AVBL
SAINT JOHNS    CLEAR     46  35  65 S12       30.01R
WINDOW ROCK    MOCLDY    44  33  65 SW10      30.00R
SHOW LOW       PTCLDY    39  34  81 S7        30.05S WCI  34
$$

AZZ023-250600-
GREATER PHOENIX AREA

CITY           SKY/WX    TMP DP  RH WIND       PRES   REMARKS
PHOENIX        PTCLDY    72  41  32 W9        29.87R
DEER VALLEY    CLEAR     67  44  43 SW5       29.88R
SCOTTSDALE     CLEAR     69  46  43 SW3       29.90R
MESA-GATEWAY   PTCLDY    68  46  45 VRB6      29.90R
$$

AZZ027-028-250600-
SOUTHWEST MARICOPA COUNTY AND PINAL COUNTY

CITY           SKY/WX    TMP DP  RH WIND       PRES   REMARKS
CASA GRANDE    CLEAR     66  37  34 SW3       29.89R
$$

AZZ503-504-507>509-250600-
SOUTHEAST ARIZONA

CITY           SKY/WX    TMP DP  RH WIND       PRES   REMARKS
TUCSON         CLEAR     65  36  34 W6        29.97R
NOGALES        CLEAR     57  39  51 S6        30.01R
SAFFORD        CLEAR     57  35  43 W6        29.93R
$$

AZZ020-021-025-026-031-250600-
SOUTHWEST ARIZONA

CITY           SKY/WX    TMP DP  RH WIND       PRES   REMARKS
YUMA           PTCLDY    67  50  54 W8        29.88R
$$

CAZ031-033-041-043-047-048-061-250600-
SOUTHERN CALIFORNIA

CITY           SKY/WX    TMP DP  RH WIND       PRES   REMARKS
DOWNTOWN L.A.  CLOUDY    60  52  74 VRB3      30.01R
L.A. AIRPORT   MOCLDY    59  53  80 W8        30.03R
SAN DIEGO      CLOUDY    62  50  64 SW6       30.04R
BURBANK        CLOUDY    59  50  72 S5        30.01R
ONTARIO        MOCLDY    58  50  75 SW9       30.01R
RIVERSIDE      CLOUDY    58  51  78 W7        30.01R
PALM SPRINGS   PTCLDY    70  44  39 NW16G23   29.86R
EL CENTRO NAS  CLEAR     66  47  50 W16       29.89S
IMPERIAL       CLEAR     66  48  52 W18G29    29.86S
BLYTHE         PTCLDY    66  51  58 S14       29.84R
$$

NVZ020-UTZ003-250600-
SOUTHERN NEVADA-UTAH

CITY           SKY/WX    TMP DP  RH WIND       PRES   REMARKS
LAS VEGAS      NOT AVBL
SALT LAKE CITY LGT RAIN  48  45  89 NW5       29.79R
$$

NMZ009-TXZ055-250600-
NEW MEXICO-WEST TEXAS

CITY           SKY/WX    TMP DP  RH WIND       PRES   REMARKS
ALBUQUERQUE    PTCLDY    53  33  46 W9        29.96R
EL PASO        PTCLDY    66  27  23 W14G21    29.95R
$$


........................KEY........................
SKY/WX - SKY CONDITION/WEATHER
TMP    - TEMPERATURE IN FAHRENHEIT
DP     - DEW POINT IN FAHRENHEIT
RH     - RELATIVE HUMIDITY IN PERCENT
WIND   - DIRECTION AND SPEED IN MILES PER HOUR (MPH)
VRB    - VARIABLE WIND DIRECTION
PRES   - MEAN SEA LEVEL PRESSURE IN INCHES OF MERCURY
         F - FALLING PRESSURE   R - RISING PRESSURE
         S - STEADY PRESSURE
VSB    - VISIBILITY IN MILES
HX     - HEAT INDEX IN FAHRENHEIT
WCI    - WIND CHILL INDEX IN FAHRENHEIT
TC     - TEMPERATURE IN CELSIUS WHICH IS ALSO KNOWN AS
         TEMPERATURE IN CENTIGRADE
AFB    - AIR FORCE BASE
         LUKE AFB IS LUKE AIR FORCE BASE
         DAVIS-MONTHAN IS DAVIS-MONTHAN AIR FORCE BASE
NAS    - NAVAL AIR STATION
         EL CENTRO NAS IS EL CENTRO NAVAL AIR STATION
N/A    - NOT AVAILABLE



USA.gov is the U.S. government's official web portal to all federal, state and local government web resources and services.